[[{"header":{"parameterUnit":"m.s-1","parameterCategory":1,"la1":30.2991,"la2":30.254,"lo1":-89.0895,"lo2":-89.0444,"dy":0.0017,"dx":0.0017,"nx":28,"ny":28,"refTime":"2023-08-28T21:00:00:Z","depth":0,"parameterNumber":2,"parameterNumberName":"U-component_of_WINDS"},"data":[0,0,0,0,0,0,0,0,0,0,0,0,0,0,0,0,0,0,0,0,0,0,0,0,0,0,0,0,0,0,0,0,0,0,0,0,0,0,0,0,0,0,0,0,0,0,0,0,0,0,0,0,0,0,0,0,0,0,-3.4538,-3.4539,0,-3.4577,-3.4578,-3.4578,-3.4473,-3.447,-3.4467,-3.4464,-3.4501,-3.4505,-3.4509,0,0,0,0,0,0,0,0,0,0,0,0,0,-3.437,-3.4374,-3.4538,-3.4539,-3.4539,-3.4577,-3.4578,-3.4578,-3.4474,-3.447,-3.4466,-3.4462,-3.45,-3.4505,-3.451,0,0,0,0,0,0,0,0,0,0,0,0,0,-3.443,-3.4375,-3.4538,-3.4492,-3.4488,-3.4577,-3.4578,-3.4579,-3.4475,-3.447,-3.4465,-3.4461,-3.4498,-3.4504,-3.451,-3.4645,0,0,-3.4529,-3.4531,0,0,0,0,0,0,0,0,-3.4427,-3.4436,-3.4498,-3.4495,-3.4491,-3.4516,-3.4532,-3.4601,-3.4476,-3.448,-3.4464,-3.4458,-3.451,-3.4515,-3.4533,-3.4647,-3.4649,-3.4529,-3.4533,-3.4536,-3.4537,0,0,0,0,0,0,0,-3.4423,-3.4434,-3.4554,-3.4499,-3.4495,-3.4468,-3.4471,-3.4545,-3.4522,-3.4479,-3.4472,-3.4478,-3.4507,-3.4527,-3.4533,-3.4649,-3.4529,-3.4535,-3.4538,-3.4541,-3.4875,-3.488,0,0,0,0,0,0,-3.4425,-3.4431,-3.4552,-3.4555,-3.4446,-3.4475,-3.4479,-3.4513,-3.4521,-3.4517,-3.4482,-3.4473,-3.4519,-3.4526,-3.4534,-3.4692,-3.4536,-3.4541,-3.4545,-3.487,-3.4876,-3.4882,0,0,0,0,0,0,-3.4422,-3.4437,-3.4551,-3.4491,-3.4503,-3.4483,-3.4522,-3.4516,-3.4536,-3.4523,-3.4518,-3.4507,-3.4516,-3.4525,-3.4618,-3.4692,-3.4544,-3.4549,-3.4864,-3.4872,-3.4879,-3.501,0,0,0,0,0,0,-3.4417,-3.4436,-3.4488,-3.4493,-3.4507,-3.4636,-3.4527,-3.452,-3.4547,-3.4535,-3.4545,-3.4542,-3.4512,-3.461,-3.4624,-3.4697,-3.4554,-3.4857,-3.4868,-3.4877,-3.4999,-3.5021,-3.504,0,0,0,0,0,-3.4412,-3.4523,-3.4491,-3.4506,-3.4572,-3.4641,-3.4649,-3.4613,-3.4553,-3.4605,-3.4596,-3.4541,-3.4681,-3.462,-3.4636,-3.4712,-3.4852,-3.4865,-3.4876,-3.4989,-3.5017,-3.504,0,0,0,0,0,0,-3.4526,-3.4523,-3.4488,-3.4604,-3.4624,-3.4623,-3.4687,-3.4643,-3.468,-3.4667,-3.4621,-3.4624,-3.4726,-3.4728,-3.466,-3.4842,-3.4756,-3.4772,-3.4837,-3.4863,-3.4883,-3.4881,-3.4559,0,0,0,0,0,-3.4565,-3.4623,-3.4616,-3.4719,-3.4731,-3.4708,-3.4736,-3.4707,-3.4725,-3.4733,-3.4731,-3.475,-3.4798,-3.483,-3.4874,-3.4998,-3.4998,-3.5058,-3.5079,-3.5096,-3.511,-3.5175,-3.5201,-3.4921,-3.4921,-3.4921,0,0,-3.4646,-3.4651,-3.469,-3.4742,-3.4754,-3.4813,-3.4715,-3.4782,-3.4825,-3.4743,-3.4831,-3.483,-3.4848,-3.4957,-3.5005,-3.4962,-3.5187,-3.5111,-3.5125,-3.5129,-3.519,-3.5216,-3.524,-3.4929,-3.4928,-3.4926,0,0,-3.4823,-3.4834,-3.492,-3.4934,-3.4954,-3.4937,-3.4958,-3.4965,-3.4961,-3.5049,-3.4988,-3.5038,-3.5122,-3.5137,-3.5156,-3.5339,-3.529,-3.5354,-3.5462,-3.5527,-3.5549,-3.5568,-3.5633,-3.5656,-3.5368,-3.5369,-3.5369,0,-3.4921,-3.5009,-3.497,-3.5042,-3.5066,-3.4995,-3.5082,-3.5097,-3.5129,-3.5147,-3.5098,-3.5202,-3.5209,-3.532,-3.5365,-3.5383,-3.5405,-3.5353,-3.5549,-3.5568,-3.5585,-3.5646,-3.5671,-3.5376,-3.5375,-3.5375,-3.5374,0,-3.5128,-3.519,-3.5258,-3.5292,-3.5323,-3.5402,-3.5374,-3.5411,-3.538,-3.5368,-3.5458,-3.5464,-3.5507,-3.5531,-3.5501,-3.5639,-3.5611,-3.5557,-3.5469,-3.562,-3.5677,-3.57,-3.5387,-3.5385,-3.5382,-3.538,0,0,-3.5379,-3.539,-3.5416,-3.543,-3.5446,-3.5493,-3.5568,-3.5611,-3.5643,-3.5668,-3.5729,-3.5801,-3.5751,-3.5772,-3.5743,-3.5799,-3.5943,-3.5737,-3.5737,-3.5775,-3.6094,-3.6135,-3.6163,-3.591,-3.5915,-3.5918,-3.6093,0,-3.5554,-3.5684,-3.5651,-3.5779,-3.5836,-3.5768,-3.5834,-3.585,-3.5841,-3.5887,-3.5876,-3.5929,-3.5858,-3.587,-3.5923,-3.5914,-3.6006,-3.5901,-3.5966,-3.5969,-3.5964,-3.6193,-3.6236,-3.6401,-3.6114,-3.6118,-3.6121,0,-3.5775,-3.5809,-3.5944,-3.595,-3.5973,-3.6032,-3.6068,-3.6113,-3.613,-3.6119,-3.6144,-3.6103,-3.6175,-3.6088,-3.6188,-3.6117,-3.6141,-3.6141,-3.6146,-3.6151,-3.6054,-3.6203,-3.6452,-3.6477,-3.6156,-3.6153,-3.615,0,-3.5944,-3.6024,-3.6114,-3.6129,-3.6138,-3.6182,-3.6188,-3.62,-3.6227,-3.6259,-3.6276,-3.6316,-3.6337,-3.6368,-3.6339,-3.6278,-3.6443,-3.6353,-3.6435,-3.6436,-3.6472,-3.6471,-3.6729,-3.6489,-3.6489,-3.6488,-3.6488,0,-3.6143,-3.6228,-3.619,-3.6246,-3.6339,-3.63,-3.6392,-3.639,-3.6401,-3.6455,-3.6399,-3.645,-3.6408,-3.6455,-3.6432,-3.6517,-3.6527,-3.652,-3.6513,-3.6525,-3.6526,-3.654,-3.6528,-3.6495,-3.6494,-3.6492,-3.6491,0,-3.6347,-3.6326,-3.642,-3.6422,-3.6424,-3.6493,-3.6493,-3.6544,-3.6531,-3.66,-3.6613,-3.6593,-3.6645,-3.6619,-3.6673,-3.6658,-3.6768,-3.6746,-3.6763,-3.6757,-3.684,-3.6833,-3.7117,-3.7152,-3.689,-3.6893,-3.6895,0,-3.6475,-3.6539,-3.6548,-3.658,-3.659,-3.6643,-3.6671,-3.6634,-3.6666,-3.6689,-3.6737,-3.6785,-3.6821,-3.6908,-3.6898,-3.6939,-3.6917,-3.7013,-3.6922,-3.6932,-3.6917,-3.6914,-3.692,-3.7032,-3.7035,-3.7037,-3.7039,0,-3.6705,-3.6691,-3.6734,-3.6774,-3.681,-3.6839,-3.6863,-3.6893,-3.6857,-3.6895,-3.6948,-3.6976,-3.7032,-3.708,-3.7115,-3.712,-3.7074,-3.7068,-3.7089,-3.7102,-3.7109,-3.7106,-3.6812,-3.7061,-3.7059,-3.7058,-3.7056,-3.7055,-3.6874,-3.6928,-3.6942,-3.6992,-3.7007,-3.7031,-3.7079,-3.7073,-3.7117,-3.716,-3.7135,-3.7198,-3.7211,-3.7254,-3.7265,-3.7313,-3.7274,-3.7305,-3.7313,-3.7321,-3.7332,-3.7102,-3.7319,-3.7318,-3.7318,-3.7317,-3.7317,0,-3.71,-3.7106,-3.7153,-3.7189,-3.7229,-3.7182,-3.7207,-3.7242,-3.7298,-3.7316,-3.7353,-3.7414,-3.746,-3.7453,-3.7494,-3.7534,-3.7514,-3.7546,-3.7542,-3.7544,-3.7364,-3.7342,-3.7562,-3.7562,-3.7562,-3.7562,-3.7561,-3.7561,-3.7223,-3.7311,-3.7298,-3.7393,-3.7397,-3.7459,-3.7477,-3.7498,-3.7512,-3.7583,-3.7621,-3.7617,-3.7624,-3.7666,-3.7706,-3.7702,-3.772,-3.776,-3.7749,-3.7581,-3.7557,-3.7534,-3.7512,-3.7765,-3.7765,-3.7925,-3.7926,-3.7928]},{"header":{"parameterUnit":"m.s-1","parameterCategory":1,"la1":30.2991,"la2":30.254,"lo1":-89.0895,"lo2":-89.0444,"dy":0.0017,"dx":0.0017,"nx":28,"ny":28,"refTime":"2023-08-28T21:00:00:Z","depth":0,"parameterNumber":3,"parameterNumberName":"V-component_of_WINDS"},"data":[0,0,0,0,0,0,0,0,0,0,0,0,0,0,0,0,0,0,0,0,0,0,0,0,0,0,0,0,0,0,0,0,0,0,0,0,0,0,0,0,0,0,0,0,0,0,0,0,0,0,0,0,0,0,0,0,0,0,-2.1799,-2.18,0,-2.1846,-2.1846,-2.1847,-2.183,-2.1829,-2.1828,-2.1827,-2.1872,-2.1874,-2.1876,0,0,0,0,0,0,0,0,0,0,0,0,0,-2.1693,-2.1695,-2.1799,-2.18,-2.18,-2.1845,-2.1846,-2.1847,-2.183,-2.1829,-2.1827,-2.1826,-2.1871,-2.1874,-2.1877,0,0,0,0,0,0,0,0,0,0,0,0,0,-2.1739,-2.1696,-2.1799,-2.1797,-2.1798,-2.1845,-2.1846,-2.1847,-2.183,-2.1829,-2.1827,-2.1826,-2.1871,-2.1874,-2.1877,-2.1928,0,0,-2.1887,-2.1888,0,0,0,0,0,0,0,0,-2.1737,-2.1743,-2.1797,-2.1798,-2.1798,-2.183,-2.1825,-2.1874,-2.183,-2.1818,-2.1827,-2.1825,-2.1859,-2.1863,-2.1875,-2.193,-2.1932,-2.1887,-2.1889,-2.1891,-2.1891,0,0,0,0,0,0,0,-2.1734,-2.1741,-2.1818,-2.1798,-2.1799,-2.1793,-2.1798,-2.1835,-2.1847,-2.1819,-2.1818,-2.1823,-2.1859,-2.1872,-2.1876,-2.1933,-2.1887,-2.189,-2.1892,-2.1893,-2.203,-2.2032,0,0,0,0,0,0,-2.1731,-2.1739,-2.1816,-2.1819,-2.1763,-2.1797,-2.1802,-2.1822,-2.1846,-2.1849,-2.1825,-2.1823,-2.1868,-2.1873,-2.1878,-2.1939,-2.1891,-2.1894,-2.1895,-2.2029,-2.2031,-2.2033,0,0,0,0,0,0,-2.1728,-2.1738,-2.1814,-2.1778,-2.1788,-2.18,-2.1822,-2.1823,-2.1836,-2.1851,-2.1853,-2.1836,-2.1866,-2.1873,-2.1916,-2.194,-2.1895,-2.1898,-2.2027,-2.2029,-2.2032,-2.2061,0,0,0,0,0,0,-2.1725,-2.1737,-2.1757,-2.1779,-2.179,-2.1852,-2.1824,-2.1825,-2.1842,-2.184,-2.1862,-2.1864,-2.1866,-2.1911,-2.1919,-2.1944,-2.1901,-2.2025,-2.2028,-2.2031,-2.2058,-2.2064,-2.207,0,0,0,0,0,-2.1722,-2.1764,-2.1759,-2.1768,-2.1816,-2.1854,-2.186,-2.1861,-2.1844,-2.1864,-2.1873,-2.1863,-2.1936,-2.1915,-2.1924,-2.195,-2.2023,-2.2027,-2.2031,-2.2055,-2.2063,-2.2069,0,0,0,0,0,0,-2.1744,-2.1767,-2.1761,-2.1812,-2.1831,-2.1851,-2.1876,-2.187,-2.1894,-2.189,-2.1891,-2.1896,-2.1939,-2.1949,-2.1925,-2.2,-2.1977,-2.1983,-2.1992,-2.2,-2.2006,-2.2002,-2.1903,0,0,0,0,0,-2.1755,-2.1785,-2.1803,-2.1846,-2.1855,-2.1864,-2.1881,-2.188,-2.19,-2.1908,-2.192,-2.1939,-2.1965,-2.1983,-2.2009,-2.2059,-2.2063,-2.2081,-2.2087,-2.2092,-2.2097,-2.2122,-2.213,-2.2045,-2.2045,-2.2045,0,0,-2.1778,-2.1794,-2.1813,-2.185,-2.1865,-2.1895,-2.1871,-2.1904,-2.1925,-2.1913,-2.1953,-2.1963,-2.1983,-2.2029,-2.205,-2.2039,-2.2121,-2.2097,-2.21,-2.2103,-2.2127,-2.2135,-2.2142,-2.2048,-2.2047,-2.2047,0,0,-2.1835,-2.1851,-2.1887,-2.1903,-2.1925,-2.1931,-2.1939,-2.196,-2.1966,-2.2007,-2.1997,-2.2022,-2.2069,-2.2084,-2.2097,-2.2158,-2.2149,-2.2166,-2.2196,-2.2222,-2.2228,-2.2234,-2.2255,-2.2262,-2.2171,-2.2171,-2.2171,0,-2.1861,-2.1906,-2.1907,-2.194,-2.1956,-2.1946,-2.1983,-2.1997,-2.2027,-2.2037,-2.2024,-2.2082,-2.2095,-2.2144,-2.2158,-2.217,-2.2179,-2.2164,-2.2227,-2.2233,-2.2239,-2.2258,-2.2266,-2.2173,-2.2173,-2.2172,-2.2172,0,-2.1935,-2.1967,-2.1993,-2.2022,-2.2042,-2.2076,-2.2082,-2.21,-2.2098,-2.2104,-2.2145,-2.216,-2.2188,-2.22,-2.2198,-2.2248,-2.224,-2.2227,-2.2203,-2.2249,-2.2267,-2.2275,-2.2175,-2.2175,-2.2174,-2.2174,0,0,-2.2009,-2.2037,-2.2047,-2.2059,-2.2083,-2.2106,-2.214,-2.2167,-2.2183,-2.2203,-2.2231,-2.227,-2.2257,-2.2273,-2.2272,-2.2294,-2.234,-2.2279,-2.2279,-2.2289,-2.2394,-2.2403,-2.2412,-2.2334,-2.2335,-2.2336,-2.2392,0,-2.2067,-2.2126,-2.2127,-2.2181,-2.2209,-2.2199,-2.2228,-2.2245,-2.2251,-2.2275,-2.2281,-2.2309,-2.2292,-2.23,-2.2322,-2.233,-2.2361,-2.2326,-2.2358,-2.2359,-2.2353,-2.2422,-2.2432,-2.2483,-2.2399,-2.24,-2.2401,0,-2.2143,-2.2165,-2.2222,-2.224,-2.2252,-2.2278,-2.2303,-2.2326,-2.2344,-2.2347,-2.2364,-2.2359,-2.2392,-2.2367,-2.2411,-2.2387,-2.24,-2.2406,-2.2408,-2.241,-2.2383,-2.2425,-2.25,-2.2508,-2.2413,-2.2412,-2.2411,0,-2.2189,-2.2234,-2.2273,-2.2284,-2.2307,-2.2325,-2.2335,-2.2352,-2.2368,-2.2389,-2.2399,-2.2423,-2.2437,-2.2455,-2.2457,-2.2439,-2.2501,-2.2476,-2.2503,-2.2503,-2.2516,-2.2515,-2.2593,-2.2526,-2.2526,-2.2526,-2.2525,0,-2.2253,-2.2288,-2.2294,-2.2319,-2.2357,-2.2357,-2.2395,-2.2403,-2.2418,-2.2443,-2.2435,-2.2458,-2.2459,-2.2482,-2.2484,-2.2519,-2.2525,-2.2528,-2.2528,-2.2528,-2.2528,-2.2537,-2.2533,-2.2528,-2.2527,-2.2527,-2.2526,0,-2.2312,-2.2318,-2.236,-2.2377,-2.2382,-2.241,-2.2424,-2.2446,-2.2452,-2.2483,-2.249,-2.2498,-2.2525,-2.2528,-2.256,-2.256,-2.2603,-2.2599,-2.2597,-2.2596,-2.2622,-2.2619,-2.2708,-2.2719,-2.2645,-2.2646,-2.2646,0,-2.2353,-2.2379,-2.2399,-2.2415,-2.2427,-2.2453,-2.2469,-2.247,-2.2487,-2.2508,-2.2528,-2.2554,-2.2575,-2.2618,-2.2626,-2.2649,-2.2646,-2.2675,-2.2649,-2.2648,-2.2645,-2.2643,-2.2645,-2.268,-2.2681,-2.2682,-2.2682,0,-2.2424,-2.2425,-2.2449,-2.2473,-2.2493,-2.2512,-2.253,-2.2543,-2.2546,-2.2565,-2.2593,-2.2609,-2.2641,-2.2666,-2.2689,-2.2698,-2.269,-2.269,-2.2697,-2.2698,-2.2695,-2.2696,-2.261,-2.2688,-2.2688,-2.2687,-2.2687,-2.2687,-2.2474,-2.2496,-2.2514,-2.254,-2.2554,-2.257,-2.2592,-2.26,-2.2623,-2.2649,-2.2648,-2.2678,-2.2693,-2.2723,-2.2734,-2.2756,-2.2747,-2.2757,-2.276,-2.2762,-2.2764,-2.2692,-2.2761,-2.276,-2.276,-2.276,-2.276,0,-2.2543,-2.2554,-2.2578,-2.2604,-2.2624,-2.2615,-2.2634,-2.2652,-2.2678,-2.2694,-2.2714,-2.2745,-2.2769,-2.2779,-2.2802,-2.2818,-2.2815,-2.2824,-2.2823,-2.2825,-2.2772,-2.2764,-2.2826,-2.2826,-2.2826,-2.2826,-2.2826,-2.2826,-2.2582,-2.262,-2.2622,-2.2666,-2.2676,-2.2705,-2.2717,-2.2732,-2.2744,-2.2779,-2.2799,-2.2805,-2.2818,-2.2842,-2.2863,-2.2865,-2.2874,-2.2884,-2.2885,-2.2835,-2.2829,-2.2822,-2.2814,-2.2886,-2.2886,-2.2935,-2.2935,-2.2936]}]]